This demonstration page uses our WeatherBlox Daily Observations layout. Learn more.

Left ArrowRight Arrow

30.21309, -93.2044

Hourly Observations for March 4, 2015

Temp ( °F °C ) Dew Point ( °F °C ) Humidity (%) Winds ( mph kmh ) Pressure ( in mb ) Visibility ( mi km ) Precip ( " mm )
12:15 am 00:15 Cloudy 68 20 67 19.7 98 98 S 9 15 29.94 1014 7 11 0.00 0.00
12:35 am 00:35 Cloudy 68 20 67 19.7 98 98 S 8 13 29.94 1014 7 11 0.00 0.00
12:55 am 00:55 Cloudy 68 20 67 19.6 98 98 S 8 13 29.94 1014 7 11 0.00 0.00
1:15 am 01:15 Cloudy 68 20.1 67 19.7 98 98 S 7 11 29.94 1014 7 11 0.00 0.00
1:35 am 01:35 Cloudy 68 20.1 67 19.6 97 97 S 6 9 29.94 1014 7 11 0.00 0.00
1:55 am 01:55 Cloudy 68 20 67 19.6 98 98 S 6 9 29.94 1014 7 11 0.00 0.00
2:15 am 02:15 Cloudy 67 19.7 67 19.4 98 98 S 5 7 29.94 1014 7 11 0.00 0.00
2:35 am 02:35 Cloudy 67 19.7 67 19.3 98 98 S 6 9 29.94 1014 7 11 0.00 0.00
2:55 am 02:55 Cloudy 67 19.5 67 19.2 98 98 S 3 6 29.91 1013 7 11 0.00 0.00
3:15 am 03:15 Cloudy with Mist and Fog 67 19.2 66 19 99 99 SSE 6 9 29.91 1013 4 6 0.00 0.00
6:00 am 06:00 Cloudy 66 19 66 19 100 100 SE 8 13 29.91 1013 4 6 0.00 0.00
6:45 am 06:45 Mostly Cloudy with Fog 64 18 64 18 100 100 SE 5 7 29.94 1014 1 1 0.00 0.00
7:20 am 07:20 Cloudy with Mist and Fog 66 19 66 19 100 100 Calm 29.94 1014 2 3 0.00 0.00
7:50 am 07:50 Mostly Cloudy with Mist and Fog 66 19 66 19 100 100 Calm 29.94 1014 4 6 0.00 0.00
8:45 am 08:45 Cloudy 70 21 66 19 88 88 VRB 6 9 29.97 1015 7 11 0.00 0.00
9:45 am 09:45 Cloudy 73 23 66 19 78 78 S 9 15 29.97 1015 10 16 0.00 0.00
11:50 am 11:50 Mostly Cloudy 79 26 68 20 70 70 S 16 26 29.94 1014 10 16 0.00 0.00
3:50 pm 15:50 Cloudy 75 24 70 21 83 83 S 12 19 29.85 1011 10 16 0.00 0.00
5:50 pm 17:50 Cloudy 73 23 70 21 89 89 S 9 15 29.83 1010 10 16 0.00 0.00
6:50 pm 18:50 Cloudy 72 22 70 21 94 94 S 8 13 29.85 1011 7 11 0.00 0.00
7:50 pm 19:50 Cloudy 72 22 70 21 94 94 S 8 13 29.88 1012 7 11 0.00 0.00
8:15 pm 20:15 Cloudy 71 21.5 69 20.6 95 95 S 7 11 29.88 1012 7 11 0.00 0.00
8:35 pm 20:35 Cloudy 71 21.5 69 20.6 95 95 S 6 9 29.88 1012 7 11 0.00 0.00
8:50 pm 20:50 Cloudy with Light Rain 70 21 70 21 100 100 S 8 13 29.88 1012 7 11 0.00 0.00
9:15 pm 21:15 Cloudy 70 21.2 69 20.7 97 97 S 8 13 29.88 1012 7 11 0.00 0.00
9:35 pm 21:35 Cloudy with Drizzle 70 21.1 69 20.7 98 98 S 8 13 29.91 1013 5 8 0.00 0.00
9:50 pm 21:50 Cloudy with Light Rain 70 21 70 21 100 100 S 6 9 29.91 1013 5 8 0.00 0.00
9:55 pm 21:55 Cloudy with Mist and Fog 70 21.2 69 20.8 98 98 S 6 9 29.91 1013 5 8 0.00 0.00
10:15 pm 22:15 Cloudy with Mist and Fog 70 21.2 70 20.9 98 98 S 6 9 29.91 1013 5 8 0.00 0.00
10:35 pm 22:35 Cloudy with Mist and Fog 71 21.4 70 20.9 97 97 S 5 7 29.91 1013 5 8 0.00 0.00
10:55 pm 22:55 Cloudy with Light Rain 70 21.1 69 20.7 98 98 S 9 15 29.91 1013 4 6 0.00 0.00
11:15 pm 23:15 Cloudy with Mist and Fog 70 21.3 70 20.9 98 98 S 9 15 29.91 1013 5 8 0.00 0.00
11:35 pm 23:35 Cloudy with Light Rain 70 21.3 70 20.9 98 98 S 9 15 29.91 1013 5 8 0.00 0.00
11:55 pm 23:55 Cloudy with Mist and Fog 70 21.3 70 20.9 98 98 SSW 9 15 29.91 1013 5 8 0.01 0.25

Powered by AerisWeather